Torax TimeFrame

Torax TimeFrame ⇒ XML

NameTime LeftWindow OpensKilledCrew
Animated Captain8d 20:052018-08-05 17:14:002018-04-17 14:02:00Pulse
Old World Drake8d 18:592018-08-05 18:20:002018-03-21 11:50:00_-Legacy-_
Kro Shuk, Doomslayer1d 18:272018-08-12 18:52:002018-04-27 21:56:00SAVAGE [POT1]
Anvilfist1d 02:492018-08-13 10:30:002018-05-02 23:11:00SAVAGE
Viserion, the Necrodragon0d 23:522018-08-13 13:27:002018-04-29 00:28:00SAVAGES
Terrance, Rebel of Rallis0d 14:582018-08-13 22:21:002018-05-01 21:34:00The Bloodguards
Zertan, The Collector0d 14:282018-08-13 22:51:002018-05-03 14:08:00Maroder
Skybrine The Inescapable0d 13:262018-08-13 23:53:002018-05-02 06:01:00Warriors
Balerion, Dragon of Dread0d 11:542018-08-14 01:25:002018-04-28 18:41:00##ARGYBOYZ##
Ganja the Stone Golem0d 09:522018-08-14 03:27:002018-05-02 10:49:00Zero Division
Ancient Magus Tarkin0d 09:132018-08-14 04:06:002018-05-02 16:15:00[FAP] AstralC
Nessam0d 09:132018-08-14 04:06:002018-05-03 13:14:00perdition {t-c}
Amalgamated Apparition0d 08:292018-08-14 04:50:002018-05-03 12:01:00[FAP] AstralC
Felroc, Overseer of Hellfire0d 08:172018-08-14 05:02:002018-05-03 11:25:00##ARGYBOYZ##
Grivvek, Protector of the Brood0d 06:262018-08-14 06:53:002018-05-01 13:55:00Warriors
Lacuste of the Swarm0d 06:032018-08-14 07:16:002018-05-01 22:29:00Excommunicado
Numerocure, The Black Messenger of Evil0d 04:442018-08-14 08:35:002018-05-01 12:28:00[FAP] CoesD
Lady Ariella0d 04:002018-08-14 09:19:002018-05-04 00:18:00SAVAGE [POT1]
Hyrak, Bringer of Nightmares0d 02:142018-08-14 11:05:002018-05-02 16:45:00-Brothers In Arms-
Keeper of Nature0d 02:112018-08-14 11:08:002018-05-03 15:31:00SAVAGE [ASTRAL2]
Tylos, The Lord Master0d 01:432018-08-14 11:36:002018-05-03 17:18:00The Last One Standing
Sigil, Lich of Woe0d 00:282018-08-14 13:48:002018-05-03 20:19:00-= ILLUMINATI =-
Nafir, God of Desolation0d 00:302018-08-14 13:50:002018-04-29 10:46:00##ARGYBOYZ##
Anguish0d 00:342018-08-14 13:54:002018-05-03 11:33:00stoka100
Volgan the Living Ironbark0d 01:012018-08-14 14:21:002018-05-03 01:25:00SAVAGE [ASTRAL4]
Freezebreed, The Frozen Manipulator0d 01:202018-08-14 14:40:002018-05-03 17:39:00SAVAGE [FREEZE]
Traxodon the Plaguebringer0d 01:342018-08-14 14:54:002018-05-01 22:00:00The Bloodguards
Synge, The Red Dragon0d 01:482018-08-14 15:08:002018-05-01 21:39:00The Bloodguards
Baron Mu, Dark Rider of the Undead0d 02:492018-08-14 16:09:002018-05-03 19:46:00[FAP] Baron
Smoot the Yeti0d 03:132018-08-14 16:33:002018-05-02 05:42:00-= ILLUMINATI =-
Zikkir the Dark Archer0d 04:212018-08-14 17:41:002018-05-02 14:27:00[FAP] AstralA
Lord Varan0d 04:562018-08-14 18:16:002018-05-03 19:34:00SAVAGE [POT4]
The Emerald Assassin0d 05:082018-08-14 18:28:002018-05-02 03:17:00Untaimables
Lady Chaos, Queen of the Abyss0d 06:492018-08-14 20:09:002018-05-04 03:20:00SAVAGE [COES4]
Jorun the Blazing Swordsman0d 07:032018-08-14 20:23:002018-05-02 03:32:00[FAP] AstralD
Melt Bane, The Forbidden Demon Dragon0d 07:172018-08-14 20:37:002018-05-02 05:32:00[FAP] CoesC
Murderface0d 07:352018-08-14 20:55:002018-05-02 18:12:00-= ILLUMINATI =-
Nayark the Mummified Sorcerer0d 07:512018-08-14 21:11:002018-05-01 07:20:00[FAP] AstralC
King Ashnar, Lord of the Unliving0d 07:572018-08-14 21:17:002018-05-01 14:50:00$AVAGE$
Jazzmin, Maiden of Vitality0d 11:312018-08-15 00:51:002018-05-01 12:52:00Zero Division
Garland, The Lord Keeper0d 14:332018-08-15 03:53:002018-05-02 20:48:00The Last One Standing
Wanhiroeaz the Devourer0d 15:052018-08-15 04:25:002018-05-02 14:09:00The Last One Standing
Ebliss, Fallen Angel of Despair0d 15:292018-08-15 04:49:002018-05-03 14:19:00SAVAGE [POT1]
Threk, King of Lords0d 18:212018-08-15 07:41:002018-05-03 16:52:00The Last One Standing
Gorganus of the Wood0d 18:252018-08-15 07:45:002018-05-01 12:50:00SAVAGE
Rancid, Lord of Thugs0d 19:302018-08-15 08:50:002018-05-03 10:09:00-= ILLUMINATI =-
Crane0d 21:102018-08-15 10:30:002018-05-03 01:16:00Blood&Honor
Raiyar, the Shadow Master0d 22:442018-08-15 12:04:002018-04-30 07:52:00Pulse
Shadow0d 22:542018-08-15 12:14:002018-05-03 12:41:00stoka100
Pinosis0d 23:342018-08-15 12:54:002018-05-02 10:28:00Blood&Honor
Lord Narada1d 01:182018-08-15 14:38:002018-05-03 14:59:00[FAP] PotSetD
Crolvak, the Fire Master1d 01:302018-08-15 14:50:002018-05-03 21:29:00SAVAGES
Mistress of the Sword1d 01:452018-08-15 15:05:002018-05-02 12:17:00Zero Division
Ormsul the Putrid1d 01:462018-08-15 15:06:002018-04-30 03:21:00Excommunicado
Bloodchill the Grizzly1d 01:472018-08-15 15:07:002018-05-03 13:12:00perdition {t-c}
Tsort1d 02:062018-08-15 15:26:002018-05-03 16:30:00perdition {t-c}
Brutalitar, Lord of the Underworld1d 02:332018-08-15 15:53:002018-05-02 03:14:00[FAP] PotSetA
Gnorb1d 06:192018-08-15 19:39:002018-05-04 03:50:00Axis of Anarchy
Sarcrina the Astral Priestess1d 06:232018-08-15 19:43:002018-05-02 21:10:00SAVAGE [ASTRAL3]
Rotborn, Eater of the Dead1d 07:012018-08-15 20:21:002018-05-02 11:45:00[FAP] CoesD
Bolkor, the Holy Master1d 07:122018-08-15 20:32:002018-05-03 22:01:00Pulse
Detox1d 07:182018-08-15 20:38:002018-05-02 18:15:00Fire and Fury
Ag Nabak the Abomination1d 07:272018-08-15 20:47:002018-04-29 20:26:00-= ILLUMINATI =-
Lord Suka1d 09:092018-08-15 22:29:002018-05-01 15:33:00[FAP] PotSetC
Lord Sibannac1d 11:092018-08-16 00:29:002018-05-03 14:57:00perdition {t-c}
Skarthul the Avenged1d 12:162018-08-16 01:36:002018-05-01 08:22:00##ARGYBOYZ##
Emperor Neudeus, Controller of the Universe1d 12:422018-08-16 02:02:002018-04-27 15:25:00SAVAGE [COES2]
Akkel the Enflamed Warrior1d 15:152018-08-16 04:35:002018-05-03 02:22:00SAVAGE [ASTRAL3]
Nar Zhul, Slayer of All1d 17:002018-08-16 06:20:002018-04-30 05:15:00SAVAGE [POT3]
Hackerphage, Protector of the Gateway1d 18:212018-08-16 07:41:002018-05-01 14:11:00[FAP] CoesC
Howldroid, Tormentor of the Pit1d 21:192018-08-16 10:39:002018-05-03 02:55:00[FAP] CoesB
Q-SEC Commander2d 00:592018-08-16 14:19:002018-05-03 14:40:00Pulse
Samatha Dark-Soul2d 03:062018-08-16 16:26:002018-04-30 23:00:00-= ILLUMINATI =-
Dreg nor, Keeper of the Infernal Essence2d 03:502018-08-16 17:10:002018-05-01 04:31:00$AVAGE$
Lord Xordam2d 05:422018-08-16 19:02:002018-05-01 18:22:00A$$holes of America
Dlanod, the Crazed Chancellor2d 06:002018-08-16 19:20:002018-04-29 01:27:00SAVAGES
Slashbrood, Devourer of the Blackness2d 06:202018-08-16 19:40:002018-05-01 13:09:00SAVAGE [COES2]
Archdevil Yirkon2d 10:042018-08-16 23:24:002018-05-03 08:52:00[FAP] AstralD
Quiver, The Renegade2d 17:112018-08-17 06:31:002018-04-30 06:50:00-= ILLUMINATI =-
Sylvanna TorLai2d 20:562018-08-17 10:16:002018-05-03 01:09:00Excommunicado
Xynak, the Arcane Master3d 03:492018-08-17 17:09:002018-05-02 02:09:00Pulse
Great Lord Ganeshan3d 05:282018-08-17 18:48:002018-05-03 16:52:00[FAP] PotSetA
Windstrike The Vile3d 16:502018-08-18 06:10:002018-04-30 10:29:00##ARGYBOYZ##
Kretok, Descendant of Nature3d 19:512018-08-18 09:11:002018-05-02 09:43:00Pulse
Crantos, Defender of Ultimation4d 07:382018-08-18 20:58:002018-04-30 16:34:00##ARGYBOYZ##
Esquin, the Kinetic Master4d 09:422018-08-18 23:02:002018-04-28 22:00:00~ The Following ~
Karvaz, Lord of Alsayic4d 10:472018-08-19 00:07:002018-05-02 17:57:00SAVAGES
Straya, the Underworld Ruler4d 20:442018-08-19 10:04:002018-04-29 02:37:00SAVAGES
Shaik, Servant of Arkron38d 07:362018-07-07 05:43:002017-09-28 12:21:00Iron Fist
Rook, Hand of Arkron36d 10:112018-07-09 03:08:002017-09-27 18:52:00~ The Following ~
Jade Dragonite31d 04:192018-07-14 09:00:002018-02-20 00:39:00 ##ARGYBOYZ##
Varsanor, Master of Darkness2d 19:322018-08-11 17:47:002018-05-01 11:08:00- Insomnia -
Vitkros, Hydra of the Deep1d 23:342018-08-12 13:45:002018-05-03 18:06:00The Last One Standing
93 Gods, Last update: 2018-08-14 13:00:08